OBJECT AA, 42849

Orbit data source: Space-Track

You're viewing an Uncataloged Satellite

Recently launched and/or uncataloged satellites may have evolving metadata. Metadata may include but not limited to: Owner, Maufacturer, Bus, Motor, and Mission.

OBJECT AA, 42849 is a satellite in SSO that was launched on Fri, 14 Jul 2017 UTC via a SOYUZ-2-1A launch vehicle from the Tyuratam Missile And Space Complex (TTMTR). Unknown objects in Earth's orbit typically refer to objects detected orbiting the Earth but have not yet been identified or cataloged. These objects could be anything from previously untracked satellites, spent rocket stages, debris from satellite collisions, or even natural meteoroids temporarily captured by Earth's gravity.

Loading next visibility...
Identifier
42849, 2017-042AA
Orbit
SSO
Country
Flag of TBDTBD
Related business
None
Manufacturer
Tyvak NSS
Mission
Non-operational Commercial Meteo Radio Occ.
Bus & Motor
CUBESAT 6U, Unknown motor
Mass
10 kg wet, 10 kg dry
Launch date (UTC)
2017-07-14 (8 years ago)
Launch vehicle
SOYUZ-2-1A
Launch site
Tyuratam Missile And Space Complex (TTMTR)
Object type
Unknown
Shape & HBR
Box + 2 Pan, 0.3 m
Radar Cross Section
0.079 m², Medium (>0.1 m² and < 1m²)

Expand to show TLE details & history
Last TLE update: 1 day ago

TLE from 1 day ago
0 OBJECT AA
1 42849U 17042AA  25259.92303864  .00003374  00000-0  24260-3 0  9993
2 42849  97.4037  70.9883 0010595 325.6152  34.4389 15.04850762446078
Epoch: 2025-09-16T22:09Z
TLE epoch observation values (Epoch: 2025-09-16T22:09:10.538Z)
Latitude
0.00006°
Longitude
102.588°
Altitude
548.979 km
Speed
7.591 km/s
True Right ascension
04h 43m 57s
True Declination
0° 00' 00"
Sunlit
Object was in daylight at epoch
Visualization orbit readout
Latitude
Unknown
Longitude
Unknown
Altitude
Unknown
Speed
Unknown
Apparent Right ascension
Unknown
Apparent Declination
Unknown
Sunlit
N/A
Visualization observer readout
Local Sidereal Time
16:19:53
Azimuth
Unknown
Elevation
Unknown
Doppler factor
Unknown
Orbital elements
Apogee altitude
556.289 km
Perigee altitude
541.611 km
Semi-major axis
6,927.087 km
Eccentricity
0.00106
Inclination
97.4037°
RAAN
70.9883°
Arg. of periapsis
325.6152°
True anomaly
34.50764°
Mean anomaly
34.4389°
Eccentric anomaly
34.47326°
Mean motion
3.76459 °/min
Orbital period
95.63 mins
BSTAR
0.0002426
Loading maneuver chart data...
Computing Atmospheric mass density...

Documentation

Showing up to 5 results
|